[[[{"header":{"parameterUnit":"kt","parameterCategory":2,"dx":1,"dy":1,"la1":30.253999710083008,"la2":30.299108505249023,"lo1":-89.0895004272461,"lo2":-89.04439544677734,"nx":28,"ny":28,"refTime":"2022-09-17T21:00:00:Z","depth":0,"parameterNumber":1,"parameterNumberName":"U-component_of_WINDS"},"data":[-8.3848,-8.407,-8.4037,-8.4276,-8.4285,-8.4441,-8.4486,-8.454,-8.4573,-8.4756,-8.4855,-8.4842,-8.486,-8.4968,-8.5072,-8.5063,-8.5108,-8.5215,-8.5185,-8.4741,-8.4677,-8.4616,-8.4558,-8.5227,-8.5228,-8.5648,-8.5652,-8.5655,-8.3534,-8.3546,-8.3662,-8.3749,-8.3848,-8.3726,-8.3785,-8.3875,-8.4018,-8.4061,-8.4154,-8.4311,-8.443,-8.4409,-8.4517,-8.462,-8.4565,-8.4651,-8.4639,-8.4644,-8.4169,-8.4109,-8.4694,-8.4694,-8.4694,-8.4693,-8.4693,-8.4693,-8.2951,-8.3086,-8.3116,-8.324,-8.3275,-8.3334,-8.3455,-8.3434,-8.3545,-8.3652,-8.3586,-8.3745,-8.3779,-8.3887,-8.3913,-8.4036,-8.3933,-8.4013,-8.4033,-8.4053,-8.4082,-8.3479,-8.4053,-8.4051,-8.4049,-8.4048,-8.4047,0,-8.251,-8.2471,-8.2577,-8.2675,-8.2762,-8.2833,-8.2891,-8.2966,-8.2863,-8.296,-8.3095,-8.3166,-8.3307,-8.3428,-8.3518,-8.3527,-8.3402,-8.3386,-8.3441,-8.3472,-8.3492,-8.3481,-8.2707,-8.3367,-8.3361,-8.3357,-8.3354,-8.3351,-8.1916,-8.2077,-8.2089,-8.2169,-8.2189,-8.232,-8.2389,-8.2286,-8.2364,-8.2419,-8.2543,-8.2663,-8.2753,-8.2975,-8.2942,-8.3046,-8.2984,-8.3241,-8.2998,-8.3026,-8.2984,-8.2974,-8.2989,-8.3288,-8.3296,-8.3302,-8.3308,0,-8.1584,-8.1519,-8.1755,-8.1748,-8.1751,-8.1926,-8.1918,-8.2048,-8.2009,-8.2182,-8.2216,-8.2154,-8.2287,-8.2211,-8.2347,-8.2303,-8.259,-8.253,-8.2578,-8.2561,-8.2781,-8.276,-8.3511,-8.3602,-8.2913,-8.292,-8.2925,0,-8.1048,-8.1263,-8.1152,-8.1292,-8.1529,-8.1415,-8.1652,-8.164,-8.1663,-8.1797,-8.1644,-8.1773,-8.1654,-8.1774,-8.1709,-8.193,-8.1955,-8.1933,-8.1912,-8.1944,-8.1947,-8.1978,-8.1944,-8.1862,-8.1858,-8.1855,-8.1852,0,-8.0531,-8.0722,-8.095,-8.0982,-8.0992,-8.1103,-8.1112,-8.1133,-8.1201,-8.1277,-8.1319,-8.1416,-8.1468,-8.1546,-8.1459,-8.1298,-8.1728,-8.1488,-8.1705,-8.1707,-8.1798,-8.1793,-8.2483,-8.1847,-8.1846,-8.1845,-8.1843,0,-8.0083,-8.0162,-8.0503,-8.0506,-8.0559,-8.071,-8.0795,-8.0905,-8.094,-8.0907,-8.0965,-8.0849,-8.1036,-8.0803,-8.1058,-8.0871,-8.0933,-8.0928,-8.0942,-8.0948,-8.0688,-8.1083,-8.1751,-8.1816,-8.0964,-8.0957,-8.095,0,-7.951,-7.9833,-7.9735,-8.0061,-8.0198,-8.0012,-8.0177,-8.021,-8.0179,-8.0291,-8.0256,-8.0384,-8.0194,-8.0222,-8.036,-8.0327,-8.0571,-8.0293,-8.0454,-8.0461,-8.0447,-8.1063,-8.1178,-8.1614,-8.0855,-8.0865,-8.0872,0,-7.9053,-7.9058,-7.9123,-7.9153,-7.9176,-7.9289,-7.948,-7.958,-7.966,-7.9713,-7.9868,-8.0047,-7.9909,-7.9957,-7.9871,-8.0019,-8.0403,-7.985,-7.9848,-7.995,-8.0801,-8.091,-8.0984,-8.0313,-8.0325,-8.0334,-8.0797,0,-7.8388,-7.8538,-7.8711,-7.878,-7.8855,-7.9053,-7.8964,-7.9054,-7.8963,-7.8923,-7.915,-7.9152,-7.9253,-7.9315,-7.9226,-7.9588,-7.9513,-7.9364,-7.9125,-7.9532,-7.9682,-7.9743,-7.891,-7.8902,-7.8896,-7.8891,0,0,-7.7852,-7.8064,-7.7945,-7.8122,-7.8177,-7.7975,-7.8194,-7.8224,-7.8289,-7.8331,-7.8199,-7.845,-7.8457,-7.8741,-7.886,-7.8902,-7.8957,-7.8817,-7.934,-7.939,-7.9437,-7.9599,-7.9665,-7.888,-7.8877,-7.8875,-7.8873,0,-7.7588,-7.76,-7.7818,-7.7843,-7.7875,-7.7819,-7.7873,-7.7867,-7.785,-7.807,-7.7897,-7.8022,-7.8224,-7.8254,-7.8295,-7.8783,-7.8643,-7.8821,-7.9112,-7.9279,-7.9338,-7.939,-7.9562,-7.9626,-7.8857,-7.8858,-7.8859,0,-7.7119,-7.7115,-7.721,-7.7323,-7.7341,-7.7486,-7.7215,-7.7379,-7.7485,-7.725,-7.747,-7.7459,-7.749,-7.777,-7.7892,-7.7774,-7.8362,-7.816,-7.8197,-7.8207,-7.8364,-7.8435,-7.8498,-7.7665,-7.7661,-7.7657,0,0,-7.6903,-7.704,-7.6998,-7.7258,-7.7282,-7.7201,-7.7268,-7.7181,-7.7212,-7.7226,-7.7206,-7.7243,-7.7358,-7.7437,-7.754,-7.7861,-7.7856,-7.8017,-7.8073,-7.8119,-7.8155,-7.8324,-7.8394,-7.7643,-7.7643,-7.7642,0,0,-7.6797,-7.6758,-7.6658,-7.6949,-7.6986,-7.6959,-7.7122,-7.6999,-7.7081,-7.7047,-7.6906,-7.691,-7.7169,-7.7164,-7.6984,-7.7453,-7.722,-7.726,-7.7445,-7.7515,-7.757,-7.7564,-7.6702,0,0,0,0,0,-7.6477,-7.6763,-7.6673,-7.6707,-7.6846,-7.7011,-7.7027,-7.6917,-7.6754,-7.6887,-7.685,-7.6695,-7.7038,-7.6875,-7.6912,-7.7112,-7.7459,-7.7491,-7.7522,-7.7835,-7.7909,-7.7972,0,0,0,0,0,0,-7.6489,-7.6532,-7.6665,-7.6653,-7.6682,-7.6999,-7.6699,-7.6677,-7.6737,-7.6705,-7.6707,-7.6695,-7.6604,-7.6848,-7.6883,-7.7076,-7.669,-7.7471,-7.7499,-7.7524,-7.7861,-7.7921,-7.7973,0,0,0,0,0,-7.6499,-7.6533,-7.6785,-7.6647,-7.6674,-7.6596,-7.6687,-7.6666,-7.6711,-7.6653,-7.6636,-7.6622,-7.6612,-7.6634,-7.6869,-7.7063,-7.6666,-7.6679,-7.7489,-7.7511,-7.7531,-7.789,0,0,0,0,0,0,-7.6506,-7.6515,-7.6787,-7.6791,-7.6529,-7.6575,-7.6579,-7.6658,-7.6652,-7.6639,-7.6559,-7.6534,-7.6622,-7.6637,-7.6654,-7.7065,-7.6645,-7.6659,-7.6667,-7.7506,-7.7523,-7.7538,0,0,0,0,0,0,-7.6495,-7.652,-7.6789,-7.6646,-7.6632,-7.6558,-7.6561,-7.6743,-7.6655,-7.6558,-7.6537,-7.6548,-7.6595,-7.6641,-7.6653,-7.6942,-7.663,-7.6643,-7.6652,-7.6658,-7.752,-7.7534,0,0,0,0,0,0,-7.6504,-7.6524,-7.6644,-7.6634,-7.6621,-7.6656,-7.6716,-7.6865,-7.6534,-7.6562,-7.6501,-7.6486,-7.6604,-7.6614,-7.6654,-7.6939,-7.6941,-7.663,-7.6639,-7.6645,-7.665,0,0,0,0,0,0,0,-7.651,-7.6398,-7.6765,-7.6624,-7.6612,-7.6827,-7.6828,-7.6829,-7.6531,-7.6518,-7.6505,-7.6492,-7.6556,-7.657,-7.6584,-7.6936,0,0,-7.6629,-7.6635,0,0,0,0,0,0,0,0,-7.6387,-7.6395,-7.6765,-7.6766,-7.6767,-7.6827,-7.6828,-7.6828,-7.6529,-7.6518,-7.6507,-7.6497,-7.6559,-7.6571,-7.6583,0,0,0,0,0,0,0,0,0,0,0,0,0,0,0,-7.6765,-7.6766,0,-7.6827,-7.6828,-7.6828,-7.6527,-7.6518,-7.651,-7.6501,-7.6563,-7.6572,-7.6582,0,0,0,0,0,0,0,0,0,0,0,0,0,0,0,0,0,0,0,0,0,0,0,0,0,0,0,0,0,0,0,0,0,0,0,0,0,0,0,0,0,0,0,0,0,0,0,0,0,0,0,0,0,0,0,0,0,0,0,0,0,0,0,0,0,0,0,0,0]}],[{"header":{"parameterUnit":"kt","parameterCategory":2,"dx":1,"dy":1,"la1":30.253999710083008,"la2":30.299108505249023,"lo1":-89.0895004272461,"lo2":-89.04439544677734,"nx":28,"ny":28,"refTime":"2022-09-17T21:00:00:Z","depth":0,"parameterNumber":2,"parameterNumberName":"V-component_of_WINDS"},"data":[-0.5284,-0.5219,-0.5183,-0.5091,-0.5043,-0.4973,-0.4936,-0.4884,-0.4832,-0.4741,-0.4681,-0.4636,-0.4568,-0.4485,-0.4416,-0.4397,-0.437,-0.4372,-0.4348,-0.4376,-0.4377,-0.4378,-0.4393,-0.4366,-0.4366,-0.4326,-0.4326,-0.4325,-0.5302,-0.5256,-0.5197,-0.5117,-0.5065,-0.5042,-0.4975,-0.4932,-0.4869,-0.4805,-0.4745,-0.4661,-0.4588,-0.4518,-0.4441,-0.4405,-0.4389,-0.4387,-0.4389,-0.4378,-0.4406,-0.4422,-0.4401,-0.4401,-0.4401,-0.4401,-0.4401,-0.4401,-0.5327,-0.5289,-0.5221,-0.5157,-0.5107,-0.5052,-0.5009,-0.4957,-0.4897,-0.4817,-0.4784,-0.4711,-0.4638,-0.4528,-0.4481,-0.442,-0.4415,-0.4401,-0.4397,-0.4395,-0.4397,-0.4458,-0.4405,-0.4405,-0.4404,-0.4404,-0.4404,0,-0.5334,-0.5308,-0.5251,-0.5182,-0.5133,-0.5076,-0.5018,-0.499,-0.492,-0.4873,-0.4802,-0.4754,-0.4658,-0.4585,-0.4505,-0.4458,-0.4428,-0.442,-0.441,-0.4426,-0.4449,-0.4435,-0.4481,-0.4423,-0.4423,-0.4423,-0.4423,-0.4423,-0.5356,-0.5317,-0.5229,-0.5193,-0.5154,-0.5096,-0.5054,-0.4996,-0.4953,-0.487,-0.4838,-0.4765,-0.4704,-0.4592,-0.4529,-0.4456,-0.4441,-0.4422,-0.443,-0.4445,-0.4439,-0.4443,-0.4437,-0.4423,-0.4423,-0.4423,-0.4423,0,-0.5371,-0.5316,-0.5244,-0.5161,-0.5139,-0.51,-0.5027,-0.4986,-0.494,-0.4876,-0.4857,-0.4784,-0.4714,-0.4653,-0.456,-0.453,-0.4458,-0.4444,-0.4482,-0.4476,-0.4453,-0.4456,-0.439,-0.4377,-0.4404,-0.4404,-0.4404,0,-0.5368,-0.5319,-0.5239,-0.5201,-0.5143,-0.5087,-0.5031,-0.4986,-0.4926,-0.4875,-0.4832,-0.4785,-0.4716,-0.4658,-0.4614,-0.4544,-0.4527,-0.45,-0.4489,-0.4504,-0.4507,-0.448,-0.4481,-0.4466,-0.4467,-0.4467,-0.4468,0,-0.5398,-0.5298,-0.5236,-0.5204,-0.5111,-0.5082,-0.5041,-0.4974,-0.4933,-0.487,-0.4842,-0.4772,-0.4733,-0.4678,-0.4623,-0.463,-0.4536,-0.4535,-0.4508,-0.451,-0.4492,-0.4494,-0.445,-0.4468,-0.4468,-0.4468,-0.4468,0,-0.5387,-0.5329,-0.5247,-0.5169,-0.5145,-0.5103,-0.5032,-0.4983,-0.4915,-0.4886,-0.4835,-0.48,-0.4736,-0.4739,-0.4648,-0.4673,-0.4636,-0.4604,-0.4601,-0.4593,-0.4598,-0.4581,-0.4545,-0.4539,-0.4582,-0.4583,-0.4584,0,-0.5436,-0.534,-0.5294,-0.5216,-0.5164,-0.5121,-0.5073,-0.5015,-0.4973,-0.492,-0.4871,-0.4811,-0.48,-0.4773,-0.4736,-0.4683,-0.465,-0.4686,-0.4605,-0.4602,-0.4625,-0.4591,-0.4602,-0.456,-0.4596,-0.4594,-0.4594,0,-0.5468,-0.536,-0.535,-0.5311,-0.523,-0.5186,-0.513,-0.506,-0.5027,-0.4968,-0.4918,-0.4832,-0.482,-0.4776,-0.4741,-0.4705,-0.4671,-0.4697,-0.4695,-0.4694,-0.4597,-0.4607,-0.46,-0.4654,-0.4652,-0.4651,-0.4603,0,-0.5463,-0.5409,-0.538,-0.53,-0.5257,-0.5207,-0.5148,-0.511,-0.5082,-0.5039,-0.4966,-0.4904,-0.483,-0.4808,-0.4779,-0.4719,-0.472,-0.4708,-0.4707,-0.4686,-0.4668,-0.4661,-0.4738,-0.4738,-0.4737,-0.4737,0,0,-0.5523,-0.5446,-0.5399,-0.5346,-0.5307,-0.5266,-0.5217,-0.5174,-0.5088,-0.5061,-0.506,-0.493,-0.488,-0.4797,-0.4786,-0.4756,-0.4739,-0.475,-0.4697,-0.4693,-0.4688,-0.4671,-0.4664,-0.4737,-0.4736,-0.4736,-0.4736,0,-0.551,-0.5466,-0.542,-0.5374,-0.5305,-0.5263,-0.5252,-0.5176,-0.5147,-0.5077,-0.5043,-0.4992,-0.4891,-0.4842,-0.4803,-0.4758,-0.4735,-0.474,-0.4736,-0.4696,-0.4692,-0.4688,-0.4671,-0.4665,-0.4735,-0.4735,-0.4735,0,-0.5531,-0.5477,-0.545,-0.5363,-0.5317,-0.5265,-0.525,-0.5196,-0.5156,-0.5112,-0.5044,-0.5002,-0.4931,-0.4862,-0.4828,-0.4826,-0.4734,-0.4753,-0.4754,-0.4749,-0.4707,-0.4702,-0.4698,-0.4751,-0.4751,-0.4751,0,0,-0.5528,-0.5479,-0.5404,-0.5356,-0.533,-0.5269,-0.5236,-0.5205,-0.5145,-0.5122,-0.5068,-0.5008,-0.4948,-0.4911,-0.4852,-0.4785,-0.4764,-0.4758,-0.4757,-0.4757,-0.4752,-0.471,-0.4705,-0.4752,-0.4752,-0.4752,0,0,-0.5526,-0.5438,-0.5422,-0.536,-0.5305,-0.5227,-0.5198,-0.5175,-0.5118,-0.5118,-0.5061,-0.5043,-0.4977,-0.4937,-0.4959,-0.485,-0.485,-0.4844,-0.488,-0.4878,-0.4877,-0.4888,-0.4935,0,0,0,0,0,-0.5485,-0.5449,-0.5435,-0.5416,-0.5307,-0.5235,-0.522,-0.5175,-0.5176,-0.5154,-0.5104,-0.5083,-0.4937,-0.4955,-0.4936,-0.4912,-0.4767,-0.4765,-0.4762,-0.4792,-0.4791,-0.479,0,0,0,0,0,0,-0.5477,-0.5455,-0.5436,-0.5357,-0.5332,-0.5236,-0.5227,-0.5214,-0.5177,-0.5174,-0.5093,-0.508,-0.5038,-0.4962,-0.4945,-0.4924,-0.494,-0.4766,-0.4764,-0.4762,-0.4792,-0.4791,-0.479,0,0,0,0,0,-0.5471,-0.5453,-0.529,-0.5357,-0.5335,-0.5266,-0.5228,-0.5217,-0.5187,-0.5112,-0.5099,-0.5157,-0.5039,-0.5021,-0.4952,-0.4932,-0.4952,-0.4946,-0.4765,-0.4763,-0.4762,-0.4791,0,0,0,0,0,0,-0.5466,-0.5441,-0.5285,-0.5276,-0.5369,-0.5271,-0.5254,-0.522,-0.5127,-0.5114,-0.5174,-0.5172,-0.5039,-0.5025,-0.5012,-0.4938,-0.4961,-0.4955,-0.4951,-0.4764,-0.4762,-0.4761,0,0,0,0,0,0,-0.545,-0.5434,-0.528,-0.5298,-0.5291,-0.5275,-0.526,-0.5195,-0.5126,-0.5193,-0.5189,-0.5174,-0.5058,-0.5028,-0.5018,-0.4917,-0.4968,-0.4962,-0.4958,-0.4955,-0.4762,-0.4761,0,0,0,0,0,0,-0.5442,-0.5428,-0.5299,-0.5294,-0.5288,-0.5189,-0.5216,-0.5105,-0.5144,-0.5198,-0.5146,-0.5147,-0.5061,-0.5049,-0.5021,-0.4925,-0.4919,-0.4968,-0.4964,-0.4961,-0.4959,0,0,0,0,0,0,0,-0.5436,-0.5541,-0.5336,-0.5291,-0.5286,-0.5198,-0.5196,-0.5193,-0.5144,-0.5145,-0.5146,-0.5147,-0.5001,-0.4995,-0.4988,-0.4932,0,0,-0.4968,-0.4965,0,0,0,0,0,0,0,0,-0.5546,-0.5543,-0.5335,-0.5334,-0.5332,-0.5198,-0.5196,-0.5194,-0.5145,-0.5145,-0.5146,-0.5146,-0.5,-0.4994,-0.4989,0,0,0,0,0,0,0,0,0,0,0,0,0,0,0,-0.5335,-0.5334,0,-0.5197,-0.5196,-0.5194,-0.5145,-0.5145,-0.5146,-0.5146,-0.4998,-0.4994,-0.499,0,0,0,0,0,0,0,0,0,0,0,0,0,0,0,0,0,0,0,0,0,0,0,0,0,0,0,0,0,0,0,0,0,0,0,0,0,0,0,0,0,0,0,0,0,0,0,0,0,0,0,0,0,0,0,0,0,0,0,0,0,0,0,0,0,0,0,0,0]}]]]